Regional Weather Roundup
Issued by NWS

Home | Current Version | Previous Version | Text Only | Print | Product List | Glossary On
Versions: 1 2 3 4 5 6 7 8 9 10 11 12 13 14 15 16 17 18 19 20 21 22 23 24 25 26 27 28 29 30 31 32 33 34 35 36 37 38 39 40 41 42 43 44 45 46 47 48 49 50
000
ASHW40 PHFO 010143
RWRHI

WEATHER ROUNDUP FOR HAWAII
NATIONAL WEATHER SERVICE HONOLULU HI
300 PM HST FRI SEP 30 2016

THIS IS AN AUTOMATED REPORT THAT HAS NOT BEEN QUALITY CONTROLLED.

NOTE..."FAIR" INDICATES FEW OR NO CLOUDS BELOW 12,000 FEET WITH NO
SIGNIFICANT WEATHER AND/OR OBSTRUCTIONS TO VISIBILITY.

* - THESE SITES REPORT LIMITED FIELDS

HIZ001>004-010200-
KAUAI-NIIHAU-

CITY           SKY/WX    TMP DP  RH WIND       PRES   REMARKS
LIHUE APT      MOSUNNY   86  70  58 NE17      30.04F HX  90
PORT ALLEN*      N/A     88 N/A N/A E22G31      N/A
POIPU*           N/A     84 N/A N/A NE10G20     N/A
PRINCEVILLE*     N/A     81 N/A N/A E10G17      N/A
KOKOLE POINT*    N/A     86 N/A N/A MISG        N/A
MOLOAA DAIRY*    N/A     81  70  69 E5G15       N/A
WAIMEA HTS*      N/A    N/A N/A N/A E14G26      N/A
PUU OPAE*        N/A     79  64  61 SW6G12      N/A
PUU LUA*       NOT AVBL
MAKAHA RIDGE*    N/A     88  66  48 NW1         N/A  HX  90
$$

HIZ005>011-010200-
OAHU-

CITY           SKY/WX    TMP DP  RH WIND       PRES   REMARKS
HONOLULU       MOSUNNY   83  66  56 NE17G24   29.99F
KALAELOA       SUNNY     88  67  49 NE12G21   30.00F HX  91
KANEOHE MCB    MOSUNNY   83  70  64 E10G20    29.99F
WHEELER FIELD  FAIR      79  68  69 NE12      30.01F
BELLOWS*         N/A    N/A N/A N/A NE21        N/A
WHEELER*         N/A    N/A N/A N/A NE7G13      N/A
WAIANAE HARBOR   N/A    N/A N/A N/A E10G21      N/A
DILLINGHAM*      N/A     88  70  55 MISG        N/A  HX  92
KAHUKU TRN*      N/A     82  72  69 W13G25      N/A
KAWAILOA*        N/A     77  66  69 E16G28      N/A
KII*             N/A     82  72  69 E21         N/A
MAKUA RANGE*     N/A     90  70  51 W9G22       N/A  HX  95
OAHU FOREST NW   N/A     72  64  78 E18G44      N/A
SCHOFIELD BRK*   N/A     79  66  65 MISG        N/A
SCHOFIELD S*   NOT AVBL
WAIANAE VLY*     N/A     88  72  58 SE8G18      N/A  HX  94
KUAOKALA*        N/A     79  68  69 E22G35      N/A
HONOULIUULI*   NOT AVBL
MOKUOLOE IS*   NOT AVBL
PALEHUA*         N/A     73  64  73 NE12G29     N/A
WAIAWA PHB*    NOT AVBL
$$

HIZ012>013-010200-
MOLOKAI-

CITY           SKY/WX    TMP DP  RH WIND       PRES   REMARKS
MOLOKAI AIRPT  MOSUNNY   84  69  60 NE15G26   30.01F
KALAUPAPA      NOT AVBL
MAKAPULAPAI*     N/A     81  72  74 NE22G29     N/A
MOLOKAI 1*     NOT AVBL
PUU ALII*        N/A     65  63  92 N3G12       N/A
$$

HIZ016-010200-
KAHOOLAWE-

CITY           SKY/WX    TMP DP  RH WIND       PRES   REMARKS
KAHOOLAWE*       N/A     79 N/A N/A E1          N/A
HAKIOAWA*        N/A     81  69  65 MISG      30.41S
HONOKANAIA*      N/A     87  67  51 E22G33    29.92F HX  90
KANELOA*         N/A     81  68  65 E24G36    30.06F
KEALIALALO*    NOT AVBL
LUA MAKIKA*    NOT AVBL
$$

HIZ014>015-010200-
LANAI-

CITY           SKY/WX    TMP DP  RH WIND       PRES   REMARKS
LANAI CITY     FAIR      81  66  60 NE16      30.03F
LANAI 1*       NOT AVBL
$$

HIZ017>028-010200-
MAUI-

CITY           SKY/WX    TMP DP  RH WIND       PRES   REMARKS
KAHULUI        MOSUNNY   88  67  49 NE23      29.98S HX  91
KAPALUA-W MAUI MOSUNNY   84  64  51 NE18G30   29.99F
HANA AIRPORT     N/A     79  72  78 E3        30.05S
HANA*            N/A     81 N/A N/A NE10        N/A
HALEAKALA SUMM   N/A     54  16  22 SE22        N/A
MAALAEA BAY*     N/A     86 N/A N/A N30G39      N/A
HALEAKALA*     NOT AVBL
KAUPO GAP*       N/A     81  64  57 S6G16       N/A
KULA 1*          N/A     67  59  75 W3G13       N/A
$$

HIZ023>026-010200-
BIG ISLAND OF HAWAII COAST AND LOWER SLOPES-

CITY           SKY/WX    TMP DP  RH WIND       PRES   REMARKS
KAILUA KONA    PTSUNNY   86  71  60 SW9       29.93F HX  91
HILO           CLOUDY    79  70  74 NE12      30.01S
HONOKAA*         N/A     75 N/A N/A VRB1        N/A
KAWAIHAE MWT*    N/A     84 N/A N/A W12G17      N/A
KAWAIHAE*        N/A     82 N/A N/A W14       29.94S
SOUTH POINT*     N/A     79 N/A N/A N15G22      N/A
UPOLU AIRPORT* NOT AVBL
KAMUELA*       PTCLDY    75  63  64 NE25      30.08S
HAKALAU*         N/A     64  55  72 E5G10       N/A
KALOKO-HONOKO*   N/A     86  70  58 SW8       29.93F HX  90
PALI 2*          N/A     79  59  50 S20G33      N/A
KEALAKOMO*       N/A     90  61  37 N21G30      N/A
KAUPULEHU*       N/A     84  61  45 N13G25      N/A
KAPAPALA*        N/A     83  65  54 SE8G21      N/A
LOWER KAHUKU*    N/A     72  63  73 E3G12       N/A
PUHE CS*         N/A     88  73  62 W6G14       N/A  HX  96
PUHO CS*         N/A     88  68  51 W5G12       N/A  HX  91
PTA KEAMUKU*     N/A     72  59  64 CALM        N/A
WAIKOLOA*        N/A     82  63  51 NE18G32     N/A
$$

HIZ027>028-010200-
BIG ISLAND OF HAWAII INTERIOR AND SUMMMITS-

CITY           SKY/WX    TMP DP  RH WIND       PRES   REMARKS
BRADSHAW FIELD MOSUNNY   72  42  33 S13G21    30.29F
MK VISITOR CEN   N/A     55  23  28 SE13        N/A
MAUNA KEA*       N/A     43  -9  11 NE13        N/A
MAUNA LOA*       N/A    N/A N/A N/A MISG        N/A
MAUNA LOA 1*   NOT AVBL
PTA KIPUKA*      N/A     75  55  50 NW9G18      N/A
PTA RANGE 17*    N/A     72  50  46 W8G18       N/A
PTA WEST*        N/A     79  61  53 NW10G21     N/A
NENE CABIN*      N/A     61  52  72 E8G15       N/A
AHUMOA*          N/A     66  56  71 N6G14       N/A
PTA PORTABLE*  NOT AVBL
PUU MALI*        N/A     68  50  52 SW9G21      N/A
$$

HIC003-010200-
NORTHWEST ISLANDS-

CITY           SKY/WX    TMP DP  RH WIND       PRES   REMARKS
MIDWAY ISLAND  MOSUNNY   82  73  74 SE7       30.12F
MIDWAY NOS*      N/A     82 N/A N/A MISG      30.11S
FRENCH FRIGATE NOT AVBL
$$

PHZ110>124-180-010200-
BUOY REPORTS

STATION/POSITION TIME  TEMP    WIND        PRES    WAVE   SWELL
                       AIR SEA DIR/SP/G            HT/PER HT/DIR
                 (UTC) (F)     (DEG/KT/KT) (MB)    (FT/S) (FT/D)
BUOY 51001       NOT AVBL
BUOY 51101       0050   80 80   80/ 16/ 17 1018.2F   8/ 8   5/ 80
BUOY 51100       NOT AVBL
BUOY 51002       NOT AVBL
BUOY 51003       0050   80 82   70/ 14/ 17 1013.9F   7/ 8   5/ 70
BUOY 51004       0050   81 81   50/ 16/ 17 1013.7F   6/ 8   5/ 70
BARBERS PT BUOY  NOT AVBL
WAIMEA BAY BUOY  0104      81                N/A     5/ 7
KAILUA BAY BUOY  0104      81                N/A     7/ 8   2/ 40
LANAI BUOY       0115      82                N/A     2/ 7   2/190
BARBERS PT 2     NOT AVBL
PAUWELA MAUI     0009      80                N/A     5/ 8
HILO             0112      81                N/A     5/ 8   2/130
KANEOHE BAY BUOY 0006      80                N/A     6/ 8
HANALEI KAUAI    NOT AVBL
KAHULUI HARBOR   0100   80 81   30/ 18/ 22 1015.4F
HONOLULU HARBOR  0100   82 82   70/  9/ 14 1016.3F
KILO NALU        NOT AVBL
HILO HARBOR      0100   76 80  360/ 11/ 14 1015.8S
MOKUOLOE         0000   80 82   70/ 15/ 19 1016.9F
NAWILIWILI       0100   80 81   50/ 13/ 16 1017.0F
WHOTS BUOY       NOT AVBL
BUOY 51028       NOT AVBL
$$

......................KEY........................................
  SKY/WX - SKY CONDITIONS/PRESENT WEATHER
  TMP    - TEMPERATURE IN FAHRENHEIT
  DWPT   - DEWPOINT IN FAHRENHEIT
  RH     - RELATIVE HUMIDITY IN PERCENT
  WIND   - DIRECTION AND SPEED /MPH FOR ISLANDS...KTS FOR BUOYS/
  PRES   - MEAN SEA LEVEL PRESSURE IN INCHES OF HG
  VSB    - VISIBILITY IN MILES
  HX     - HEAT INDEX
  WCI    - WIND CHILL INDEX
  VRB    - VARIABLE WIND DIRECTION
  N/A    - NOT AVAILABLE



USA.gov is the U.S. government's official web portal to all federal, state and local government web resources and services.